This is the latest recevied weather packets stored in our database for station/object LRSV. If no packets are shown the sender has not sent any weather packets the latest 1 day(s).
| Time | Temp. | Humidity | Pressure | Rain* | Wind** | Luminosity | Snow |
|---|---|---|---|---|---|---|---|
| 1778090601 | 18.89° C | 40% | 1011 hPa | - | - | - | - |
| 1778087000 | 21.11° C | 35% | 1011 hPa | - | - | - | - |
| 1778082501 | 23.89° C | 27% | 1011 hPa | - | - | - | - |
| 1778080700 | 25° C | 28% | 1011 hPa | - | - | - | - |
| 1778078900 | 25° C | 28% | 1011 hPa | - | - | - | - |
| 1778078012 | 25° C | 28% | 1011 hPa | - | - | - | - |
| 1778073500 | 26.11° C | 26% | 1011 hPa | - | - | - | - |
| 1778071701 | 26.11° C | 24% | 1012 hPa | - | - | - | - |
| 1778070800 | 26.11° C | 24% | 1012 hPa | - | - | - | - |
| 1778068100 | 26.11° C | 26% | 1012 hPa | - | - | - | - |
| 1778066300 | 26.11° C | 23% | 1013 hPa | - | - | - | - |
| 1778065400 | 26.11° C | 23% | 1013 hPa | - | - | - | - |
| 1778060000 | 25° C | 24% | 1013 hPa | - | - | - | - |
| 1778059100 | 23.89° C | 34% | 1013 hPa | - | - | - | - |
| 1778058200 | 23.89° C | 34% | 1013 hPa | - | - | - | - |
| 1778056400 | 22.78° C | 38% | 1013 hPa | - | - | - | - |
| 1778055497 | 22.22° C | 38% | 1013 hPa | - | - | - | - |
| 1778053701 | 21.11° C | 40% | 1013 hPa | - | - | - | - |
| 1778051900 | 18.89° C | 43% | 1013 hPa | - | - | - | - |
| 1778051000 | 18.89° C | 43% | 1013 hPa | - | - | - | - |
| 1778049200 | 17.22° C | 49% | 1013 hPa | - | - | - | - |
| 1778048300 | 17.22° C | 52% | 1013 hPa | - | - | - | - |
| 1778047402 | 17.22° C | 52% | 1013 hPa | - | - | - | - |
| 1778046501 | 16.11° C | 55% | 1013 hPa | - | - | - | - |
| 1778044700 | 15° C | 51% | 1013 hPa | - | - | - | - |
* Rain since midnight (hover to see other rain measurements)
** Current wind speed in m/s (hover to see current wind gust speed)